Location: Newark
(25.4297°S, 49.2719°W)
Time: 01:55:03
(UTC+00:00)

Vanguard 1 Rocket - All Passes

Search period start: 20 November 2019 00:00
Search period end: 30 November 2019 00:00
Orbit: 651 x 4226 km, 34.3° (Epoch: 18 November)

Date Brightness Start Highest point End Pass type
(mag) Time Alt. Az. Time Alt. Az. Time Alt. Az.
20 Nov - 02:34:33 10° W 02:42:36 17° NW 02:48:25 10° NNW visible
20 Nov - 12:44:03 10° NNE 12:52:39 18° NE 13:04:11 10° E daylight
20 Nov - 15:03:27 10° NW 15:19:44 62° NE 15:45:08 10° ESE daylight
20 Nov - 17:30:28 10° WNW 17:52:47 79° SSW 18:18:49 10° ESE daylight
20 Nov - 20:03:11 10° W 20:29:48 68° S 20:50:03 10° E daylight
20 Nov - 22:38:45 10° WSW 23:04:01 89° NNW 23:17:54 10° ENE visible
21 Nov - 01:15:35 10° WSW 01:31:38 35° NW 01:40:53 10° NNE visible
21 Nov - 13:53:16 10° NNW 14:06:34 42° NE 14:28:06 10° ESE daylight
21 Nov - 16:17:36 10° WNW 16:36:43 89° NNE 17:03:43 10° ESE daylight
21 Nov - 18:47:50 10° W 19:12:46 69° S 19:36:21 10° ESE daylight
21 Nov - 21:22:17 10° WSW 21:49:08 78° SSE 22:06:06 10° ENE daylight
21 Nov - 23:58:10 10° WSW 00:19:47 58° NW 00:31:24 10° NE visible
22 Nov - 02:41:15 10° WNW 02:44:38 11° WNW 02:47:36 10° NW visible
22 Nov - 12:44:41 10° N 12:54:33 24° NE 13:09:12 10° E daylight
22 Nov - 15:05:56 10° NW 15:21:55 72° NE 15:47:52 10° ESE daylight
22 Nov - 17:33:36 10° W 17:55:43 74° SSW 18:21:48 10° ESE daylight
22 Nov - 20:06:18 10° WSW 20:32:59 71° S 20:53:21 10° E daylight
22 Nov - 22:41:23 10° WSW 23:06:38 79° NNW 23:20:49 10° NE visible
23 Nov - 01:19:09 10° WSW 01:33:38 27° NW 01:42:42 10° N visible
23 Nov - 13:55:23 10° NNW 14:08:33 51° NE 14:31:08 10° ESE daylight
23 Nov - 16:20:34 10° WNW 16:39:24 83° SSW 17:06:29 10° ESE daylight
23 Nov - 18:51:05 10° W 19:15:58 68° S 19:39:35 10° E daylight
23 Nov - 21:25:05 10° WSW 21:52:01 85° SSE 22:09:13 10° ENE daylight
24 Nov - 00:01:02 10° WSW 00:21:56 47° NW 00:33:47 10° NNE visible
24 Nov - 12:46:07 10° N 12:56:26 31° NE 13:13:11 10° ESE daylight
24 Nov - 15:08:39 10° NW 15:24:19 81° NNE 15:50:31 10° ESE daylight
24 Nov - 17:36:50 10° W 17:58:48 70° S 18:24:52 10° ESE daylight
24 Nov - 20:09:20 10° WSW 20:36:04 74° SSE 20:56:35 10° E daylight
24 Nov - 22:44:02 10° WSW 23:09:02 69° NW 23:23:31 10° NE visible
25 Nov - 01:23:27 10° W 01:35:35 21° NW 01:43:57 10° NNW visible
25 Nov - 11:39:30 10° NNE 11:45:11 14° ENE 11:52:30 10° E daylight
25 Nov - 13:57:47 10° NW 14:10:41 61° NE 14:33:56 10° ESE daylight
25 Nov - 16:23:40 10° WNW 16:42:17 77° SSW 17:09:20 10° ESE daylight
25 Nov - 18:54:18 10° WSW 19:19:09 69° S 19:42:51 10° E daylight
25 Nov - 21:27:48 10° WSW 21:54:42 87° NNW 22:12:11 10° ENE visible
26 Nov - 00:04:08 10° WSW 00:23:55 38° NW 00:35:52 10° NNE visible
26 Nov - 12:48:01 10° NNW 12:58:24 39° NE 13:16:36 10° ESE daylight
26 Nov - 15:11:33 10° WNW 15:26:56 89° SSW 15:53:11 10° ESE daylight
26 Nov - 17:40:07 10° W 18:01:59 68° S 18:28:01 10° E daylight
26 Nov - 20:12:16 10° WSW 20:39:00 80° SSE 20:59:44 10° ENE daylight
26 Nov - 22:46:45 10° WSW 23:11:14 59° NW 23:26:01 10° NE visible
27 Nov - 01:29:05 10° W 01:37:31 15° WNW 01:44:07 10° NNW visible
27 Nov - 11:39:55 10° NNE 11:47:10 20° NE 11:57:51 10° E daylight
27 Nov - 14:00:25 10° NW 14:13:01 72° NE 14:36:36 10° ESE daylight
27 Nov - 16:26:54 10° W 16:45:19 72° SSW 17:12:16 10° ESE daylight
27 Nov - 18:57:27 10° WSW 19:22:17 72° SSE 19:46:06 10° E daylight
27 Nov - 21:30:30 10° WSW 21:57:10 78° NNW 22:14:58 10° NE visible
28 Nov - 00:07:40 10° WSW 00:25:48 31° NW 00:37:36 10° N visible
28 Nov - 12:50:16 10° NNW 13:00:31 49° NE 13:19:38 10° ESE daylight
28 Nov - 15:14:37 10° WNW 15:29:46 81° SSW 15:55:54 10° ESE daylight
28 Nov - 17:43:24 10° W 18:05:11 68° S 18:31:14 10° E daylight
28 Nov - 20:15:07 10° WSW 20:41:46 86° SSE 21:02:45 10° ENE daylight
28 Nov - 22:49:39 10° WSW 23:13:15 49° NW 23:28:16 10° NNE visible
29 Nov - 11:41:21 10° N 11:49:11 27° NE 12:01:59 10° ESE daylight
29 Nov - 14:03:15 10° WNW 14:15:35 83° NNE 14:39:14 10° ESE daylight
29 Nov - 16:30:12 10° W 16:48:29 69° S 17:15:19 10° ESE daylight
29 Nov - 19:00:31 10° WSW 19:25:18 76° SSE 19:49:16 10° ENE daylight
29 Nov - 21:33:13 10° WSW 21:59:27 69° NW 22:17:32 10° NE visible
